Date String (YYYY-MM-DD hh:mm:ss) UTC,Instrument flags,Ambient pressure (hPa),Sample flow (lpm),Bypass flow (lpm),Sample temperature (°C),Ambient temperature (°C),ASC tube jacket temperature (°C),LED temperature (°C),Box temperature (°C),Sample RH (%),Span deviation,Mass concentration (μg/m³),Mass concentration (μg/m³),Mass concentration (μg/m³)
DateTimeUTC,F1_M11,P_M11,Q1_M11,Q2_M11,T1_M11,T2_M11,T3_M11,T4_M11,T5_M11,U1_M11,ZSPAN_M11,X0_M11,X2_M11,X1_M11
2022-07-29 01:00:00,,0830.0,5.00,0.00,31.5,28.5,00.0,39.8,32.3,34.7,0000.0,0013.13,0006.44,0005.79
2022-07-29 01:01:00,,0830.1,4.99,0.00,31.5,28.6,00.0,39.8,32.3,34.4,0000.0,0013.59,0006.39,0005.73
2022-07-29 01:02:00,,0830.1,5.01,0.00,31.5,28.7,00.0,39.8,32.3,34.4,0000.0,0013.53,0006.33,0005.67
2022-07-29 01:03:00,,0830.1,5.00,0.00,31.5,28.8,00.0,39.8,32.3,35.0,0000.0,0013.61,0006.31,0005.62
2022-07-29 01:04:00,,0830.1,5.01,0.00,31.6,28.9,00.0,39.8,32.4,35.2,0000.0,0013.60,0006.30,0005.59
2022-07-29 01:05:00,,0830.1,4.99,0.00,31.9,28.9,00.0,39.9,32.6,34.7,0000.0,0013.69,0006.25,0005.53
2022-07-29 01:06:00,,0830.1,5.01,0.00,32.0,29.0,00.0,39.9,32.6,34.5,0000.0,0012.72,0006.18,0005.47
2022-07-29 01:07:00,,0830.1,5.00,0.00,32.0,29.0,00.0,39.9,32.6,34.4,0000.0,0012.84,0006.18,0005.45
2022-07-29 01:08:00,,0830.1,4.99,0.00,32.0,29.1,00.0,40.0,32.6,34.2,0000.0,0011.88,0006.18,0005.47
2022-07-29 01:09:00,,0830.1,5.00,0.00,32.0,29.1,00.0,40.0,32.6,34.1,0000.0,0012.53,0006.21,0005.50
2022-07-29 01:10:00,,0830.1,5.00,0.00,32.0,29.2,00.0,40.0,32.6,34.3,0000.0,0012.34,0006.25,0005.51
2022-07-29 01:11:00,,0830.1,5.01,0.00,32.0,28.9,00.0,40.1,32.5,34.1,0000.0,0012.14,0006.23,0005.53
2022-07-29 01:12:00,,0830.1,5.00,0.00,31.9,28.1,00.0,40.0,32.3,34.2,0000.0,0011.57,0006.18,0005.54
2022-07-29 01:13:00,,0830.1,5.00,0.00,31.8,27.6,00.0,40.0,32.2,34.0,0000.0,0011.44,0006.16,0005.55
2022-07-29 01:14:00,,0830.1,5.00,0.00,31.7,27.4,00.0,40.0,32.1,34.0,0000.0,0011.50,0006.19,0005.58
2022-07-29 01:15:00,,0830.2,5.01,0.00,31.5,27.4,00.0,39.9,32.0,34.2,0000.0,0011.64,0006.20,0005.62
2022-07-29 01:16:00,,0830.1,4.99,0.00,31.4,27.6,00.0,39.9,32.0,34.3,0000.0,0011.50,0006.22,0005.68
2022-07-29 01:17:00,,0830.2,5.01,0.00,31.3,27.7,00.0,39.9,32.0,34.7,0000.0,0011.87,0006.25,0005.73
2022-07-29 01:18:00,,0830.1,5.00,0.00,31.3,27.9,00.0,39.8,32.1,34.7,0000.0,0011.88,0006.23,0005.76
2022-07-29 01:19:00,,0830.1,4.99,0.00,31.2,28.0,00.0,39.8,32.1,34.7,0000.0,0011.93,0006.25,0005.80
2022-07-29 01:20:00,,0830.1,4.99,0.00,31.1,28.2,00.0,39.8,32.1,34.9,0000.0,0010.97,0006.27,0005.83
2022-07-29 01:21:00,,0830.1,5.01,0.00,31.1,28.3,00.0,39.7,32.1,35.0,0000.0,0010.91,0006.29,0005.87
2022-07-29 01:22:00,,0830.1,4.99,0.00,31.2,28.4,00.0,39.7,32.2,34.7,0000.0,0011.06,0006.35,0005.91
2022-07-29 01:23:00,,0830.1,4.99,0.00,31.3,28.5,00.0,39.7,32.3,34.6,0000.0,0011.41,0006.41,0005.94
2022-07-29 01:24:00,,0830.1,5.01,0.00,31.3,28.6,00.0,39.7,32.2,34.1,0000.1,0012.20,0006.48,0005.98
2022-07-29 01:25:00,,0830.2,5.00,0.00,31.3,28.7,00.0,39.7,32.2,34.2,0000.3,0012.21,0006.52,0005.99
2022-07-29 01:26:00,,0830.2,5.00,0.00,31.3,28.8,00.0,39.7,32.3,34.3,0000.4,0011.69,0006.49,0005.99
2022-07-29 01:27:00,,0830.2,5.00,0.00,31.2,28.8,00.0,39.7,32.3,34.2,0000.7,0011.63,0006.50,0005.99
2022-07-29 01:28:00,,0830.2,4.99,0.00,31.2,28.9,00.0,39.7,32.3,34.1,0000.5,0011.24,0006.52,0006.00
2022-07-29 01:29:00,,0830.2,4.99,0.00,31.2,29.0,00.0,39.7,32.3,34.0,0000.4,0010.99,0006.52,0006.02
2022-07-29 01:30:00,,0830.2,5.01,0.00,31.2,29.0,00.0,39.7,32.3,33.9,0000.9,0010.84,0006.52,0006.02
2022-07-29 01:31:00,,0830.2,5.00,0.00,31.2,29.1,00.0,39.7,32.3,34.0,0000.9,0010.60,0006.49,0006.03
2022-07-29 01:32:00,,0830.2,4.99,0.00,31.2,29.1,00.0,39.7,32.4,33.9,0001.1,0010.58,0006.51,0006.05
2022-07-29 01:33:00,,0830.3,5.00,0.00,31.1,29.1,00.0,39.7,32.4,33.9,0001.5,0010.86,0006.53,0006.07
2022-07-29 01:34:00,,0830.2,5.00,0.00,31.1,29.2,00.0,39.7,32.4,34.1,0001.9,0011.05,0006.56,0006.10
2022-07-29 01:35:00,,0830.2,4.99,0.00,31.1,29.2,00.0,39.7,32.4,34.3,0002.3,0010.30,0006.56,0006.12
2022-07-29 01:36:00,,0830.2,4.99,0.00,31.1,29.2,00.0,39.7,32.4,34.4,0002.5,0010.28,0006.57,0006.15
2022-07-29 01:37:00,,0830.2,5.02,0.00,31.1,29.3,00.0,39.7,32.4,34.5,0002.2,0010.60,0006.63,0006.19
2022-07-29 01:38:00,,0830.2,5.00,0.00,31.1,29.3,00.0,39.7,32.4,34.6,0001.7,0010.91,0006.67,0006.22
2022-07-29 01:39:00,,0830.3,5.00,0.00,31.1,28.9,00.0,39.7,32.3,34.3,0001.4,0011.00,0006.70,0006.26
2022-07-29 01:40:00,,0830.3,5.00,0.00,31.0,28.2,00.0,39.6,32.2,34.4,0001.4,0011.14,0006.74,0006.29
2022-07-29 01:41:00,,0830.3,4.99,0.00,30.9,28.0,00.0,39.6,32.1,34.4,0001.2,0010.86,0006.77,0006.32
2022-07-29 01:42:00,,0830.3,5.02,0.00,30.8,28.0,00.0,39.5,32.0,34.7,0001.4,0011.07,0006.86,0006.36
2022-07-29 01:43:00,,0830.3,5.00,0.00,30.8,28.1,00.0,39.5,32.0,34.6,0001.1,0011.08,0006.89,0006.40
2022-07-29 01:44:00,,0830.3,5.01,0.00,30.7,28.2,00.0,39.5,32.0,34.8,0000.7,0010.74,0006.90,0006.43
2022-07-29 01:45:00,,0830.4,5.00,0.00,30.7,28.3,00.0,39.4,32.0,35.1,0000.4,0010.43,0006.88,0006.44
2022-07-29 01:46:00,,0830.3,4.99,0.00,30.8,28.4,00.0,39.4,32.1,35.4,-000.2,0010.61,0006.85,0006.42
2022-07-29 01:47:00,,0830.4,4.99,0.00,31.0,28.5,00.0,39.4,32.3,34.5,-000.4,0010.64,0006.84,0006.43
2022-07-29 01:48:00,,0830.4,5.00,0.00,31.2,28.6,00.0,39.4,32.3,33.8,-000.4,0010.53,0006.84,0006.43
2022-07-29 01:49:00,,0830.4,5.00,0.00,31.2,28.7,00.0,39.4,32.3,33.6,-000.3,0010.55,0006.86,0006.44
2022-07-29 01:50:00,,0830.5,4.99,0.00,31.3,28.8,00.0,39.5,32.3,33.7,-000.5,0010.55,0006.89,0006.44
2022-07-29 01:51:00,,0830.4,4.99,0.00,31.3,28.9,00.0,39.5,32.3,33.8,-000.6,0010.41,0006.93,0006.45
2022-07-29 01:52:00,,0830.4,5.01,0.00,31.3,29.0,00.0,39.5,32.3,33.9,-000.4,0010.37,0006.93,0006.46
2022-07-29 01:53:00,,0830.5,5.00,0.00,31.3,29.0,00.0,39.6,32.3,34.0,-000.3,0010.27,0006.90,0006.45
2022-07-29 01:54:00,,0830.5,5.01,0.00,31.3,29.1,00.0,39.6,32.4,34.0,-000.5,0010.38,0006.91,0006.43
2022-07-29 01:55:00,,0830.6,5.00,0.00,31.3,29.1,00.0,39.6,32.4,34.2,-000.7,0010.43,0006.90,0006.41
2022-07-29 01:56:00,,0830.6,5.00,0.00,31.2,29.2,00.0,39.6,32.4,34.3,-000.5,0010.23,0006.90,0006.41
2022-07-29 01:57:00,,0830.6,4.99,0.00,31.2,28.8,00.0,39.6,32.3,34.3,-000.4,0010.12,0006.92,0006.45
2022-07-29 01:58:00,,0830.6,5.01,0.00,31.2,28.0,00.0,39.6,32.1,34.3,-000.2,0010.08,0006.95,0006.48
2022-07-29 01:59:00,,0830.6,5.00,0.00,31.1,27.5,00.0,39.6,32.0,34.3,0000.0,0010.11,0006.96,0006.49
